Home   Weather   Tiraspol   Past weeks

Flag for Moldova Past Weather in Tiraspol, Moldova — Yesterday and Last 2 Weeks

Now
68 °F

Passing clouds.


Feels Like: 68 °F
Forecast: 71 / 89 °F
Wind: 6 mph from South

Location: Chisinau International Airport

Current Time: Jul 26, 2017 at 12:04:18 am

Latest Report: Jul 25, 2017 at 11:30 pm


Visibility: N/A

Pressure: 29.59 "Hg

Humidity: 73%

Dew Point: 59 °F

Location of TiraspolLocation

Past Weather in Tiraspol — Graph

°F

Tiraspol Temperature Yesterday

Maximum temperature yesterday: 90 °F (at 2:30 pm)
Minimum temperature yesterday: 66 °F (at 3:30 am)
Average temperature yesterday: 77 °F

High & Low Weather Summary for the Past Weeks

 TemperatureHumidityPressure
High93 °F (Jul 22, 4:00 pm)100% (Jul 13, 5:00 am)30.15 "Hg (Jul 13, 5:00 am)
Low48 °F (Jul 15, 5:30 am)26% (Jul 21, 4:00 pm)29.56 "Hg (Jul 25, 5:00 pm)
Average74 °F57%29.93 "Hg
* Reported Jul 10 11:00 pm — Jul 25 11:00 pm, Tiraspol. Weather by CustomWeather, © 2017

Note: Actual official high and low records may vary slightly from our data, if they occured in-between our weather recording intervals... More about our weather records

Advertising

Tiraspol Weather History for the Previous 24 Hours

Scroll right to see more
 ConditionsComfort  
Time TempWeatherWind HumidityBarometerVisibility
11:00 pm
Tue, Jul 25
68 °FPassing clouds.2 mph69%29.59 "HgN/A
10:30 pm68 °FPassing clouds.6 mph69%29.59 "HgN/A
10:00 pm72 °FPassing clouds.7 mph61%29.56 "HgN/A
9:30 pm72 °FPassing clouds.6 mph61%29.56 "HgN/A
9:00 pm72 °FThundershowers. Passing clouds.8 mph65%29.59 "HgN/A
8:30 pm73 °FThundershowers. Partly sunny.14 mph61%29.62 "HgN/A
8:00 pm75 °FThundershowers. Partly sunny.16 mph57%29.62 "HgN/A
7:30 pm82 °FThundershowers. Scattered clouds.15 mph48%29.59 "HgN/A
7:00 pm84 °FPassing clouds.15 mph45%29.59 "HgN/A
6:30 pm86 °FPassing clouds.15 mph43%29.56 "HgN/A
6:00 pm86 °FPassing clouds.15 mph43%29.56 "HgN/A
5:30 pm88 °FSunny.18 mph43%29.56 "Hg10 mi
5:00 pm90 °FSunny.15 mph38%29.56 "Hg10 mi
4:30 pm88 °FSunny.15 mph43%29.59 "Hg10 mi
4:00 pm90 °FSunny.15 mph38%29.59 "Hg10 mi
3:30 pm90 °FPassing clouds.15 mph41%29.59 "HgN/A
3:00 pm88 °FPassing clouds.14 mph40%29.59 "HgN/A
2:30 pm90 °FPassing clouds.13 mph38%29.62 "HgN/A
2:00 pm86 °FSunny.12 mph46%29.62 "Hg10 mi
1:30 pm84 °FSunny.13 mph48%29.62 "Hg10 mi
1:00 pm84 °FPassing clouds.14 mph48%29.62 "HgN/A
12:30 pm86 °FSunny.20 mph46%29.62 "Hg10 mi
12:00 pm86 °FSunny.16 mph46%29.62 "Hg10 mi
11:30 am84 °FPassing clouds.14 mph51%29.65 "HgN/A
11:00 am84 °FPassing clouds.13 mph51%29.68 "HgN/A
10:30 am81 °FPassing clouds.12 mph58%29.68 "HgN/A
10:00 am81 °FPassing clouds.13 mph62%29.65 "HgN/A
9:30 am79 °FSunny.12 mph65%29.65 "Hg10 mi
9:00 am77 °FPassing clouds.10 mph74%29.68 "HgN/A
8:30 am77 °FPassing clouds.10 mph74%29.68 "Hg5 mi
8:00 am73 °FPassing clouds.7 mph83%29.68 "Hg4 mi
7:30 am72 °FFog.6 mph88%29.68 "Hg3 mi
7:00 am68 °FFog.6 mph94%29.68 "Hg2 mi
6:30 am66 °FFog.7 mph100%29.68 "Hg2 mi
6:00 am66 °FFog.3 mph94%29.68 "Hg1 mi
5:30 am66 °FFog.3 mph94%29.68 "Hg1 mi
5:00 am66 °FFog.5 mph100%29.71 "Hg1 mi
4:30 am66 °FFog.6 mph94%29.71 "Hg1 mi
4:00 am66 °FFog.5 mph94%29.71 "Hg1 mi
3:30 am66 °FFog.5 mph100%29.71 "Hg1 mi
3:00 am68 °FFog.5 mph94%29.74 "Hg1 mi
2:30 am68 °FFog.3 mph94%29.74 "Hg2 mi
2:00 am68 °FFog.5 mph94%29.74 "Hg2 mi
1:30 am70 °FFog.5 mph94%29.74 "Hg2 mi
1:00 am70 °FClear.5 mph88%29.74 "Hg4 mi
12:30 am70 °FClear.1 mph88%29.74 "Hg10 mi
12:00 am70 °FPassing clouds.6 mph88%29.74 "HgN/A
Weather by CustomWeather, © 2017

See weather overviewHow to use our weather pages